Wind_Speed
13 13 11 9 10 11 7 9 11 5 16 8 11 9 11 14 17 18 22 24 21 10 7 6 4 4 5 4 4 5 6 7 7 8 10 11 12 12 13 15 16 17 17 18 18 19 20 21 21
14 13 11 10 13 10 4 8 7 16 14 13 12 14 15 21 22 23 25 20 13 8 5 4 4 5 5 5 6 7 8 9 10 12 13 14 14 16 17 18 19 20 20 21 22 23 22 24 25
14 14 13 13 13 7 4 3 7 6 12 5 2 9 11 21 25 21 16 14 12 9 6 6 6 7 7 8 8 10 10 11 12 12 13 14 16 16 18 20 22 24 26 28 29 28 28 29 30
14 14 15 16 13 7 5 3 5 9 11 5 8 9 16 20 19 19 16 12 11 9 8 7 6 7 8 9 10 11 12 13 13 14 16 18 20 22 24 27 28 30 31 32 32 30 32 33 34
14 14 16 17 12 8 9 7 5 8 8 10 10 13 16 19 16 15 14 12 11 9 9 9 8 8 8 9 11 13 15 16 17 19 21 22 23 25 28 30 31 32 33 32 32 32 32 32 34
14 16 18 18 16 13 10 7 10 9 8 10 14 20 20 14 13 12 11 10 12 13 12 12 9 10 10 12 13 14 15 17 20 22 24 26 28 29 31 33 34 33 31 33 33 33 33 32 32
16 18 18 20 19 17 10 8 9 11 5 11 16 23 19 14 13 12 12 12 13 14 13 12 11 11 12 13 14 15 17 19 20 23 25 26 29 30 30 30 29 29 29 29 28 28 27 28 29
19 20 21 20 20 19 14 16 16 9 1 11 14 21 14 12 15 14 15 14 13 12 12 13 13 14 14 15 16 17 18 19 21 22 24 25 26 25 24 23 23 24 26 28 29 30 31 32 34
21 24 22 22 18 17 21 19 11 12 3 7 12 15 12 18 15 16 16 15 14 15 16 15 14 15 15 15 15 15 15 16 16 15 15 15 18 21 23 25 26 28 29 31 32 34 36 38 40
26 26 24 25 23 22 22 18 14 8 1 4 7 10 12 22 18 14 14 17 17 18 16 15 15 15 12 9 7 7 8 11 13 15 18 20 22 24 27 29 30 32 34 36 38 40 41 43 44
32 29 28 29 27 25 24 20 15 8 10 6 6 10 17 18 17 14 13 16 18 16 14 15 15 12 8 8 10 11 12 14 18 21 22 24 26 28 30 31 33 35 37 40 42 44 46 47 49
36 36 30 31 30 27 21 20 9 16 14 9 11 13 15 16 16 14 16 16 17 14 14 15 14 12 12 13 14 16 19 21 23 27 28 29 31 33 34 36 38 40 42 44 47 48 50 51 52
32 41 34 34 35 34 30 23 23 24 10 9 9 10 13 14 14 16 17 18 17 16 11 11 12 14 15 15 17 19 23 25 27 29 29 29 31 33 35 38 40 43 45 47 48 50 52 54 56
17 40 39 39 36 33 30 21 21 23 13 12 10 12 12 11 13 15 15 17 16 15 14 13 14 16 18 20 21 23 27 30 31 31 32 35 37 39 41 44 46 47 48 49 50 52 53 54 56
19 23 40 40 33 33 29 27 26 25 16 15 9 10 9 10 14 16 16 18 18 14 13 13 15 16 19 23 26 28 31 34 33 35 38 40 41 43 45 46 47 49 48 50 53 54 54 55 55
21 21 31 31 30 30 31 28 30 26 21 18 12 10 10 13 15 16 18 18 18 17 15 13 14 16 19 23 26 29 33 35 36 38 40 40 41 40 42 44 46 48 50 53 55 56 55 55 55
23 31 32 34 34 30 30 30 30 29 24 21 12 10 10 12 12 12 14 16 17 13 10 10 12 17 21 25 29 32 35 37 38 38 39 38 42 46 48 50 51 53 55 55 55 54 55 56 58
25 30 36 38 39 39 37 33 35 29 25 23 16 10 12 12 10 12 12 18 20 16 11 8 15 23 30 36 36 35 38 39 40 37 38 45 47 48 51 53 53 55 55 53 54 57 60 64 66
25 25 29 37 42 42 38 33 31 30 26 24 20 14 9 12 14 15 18 18 21 21 17 15 21 29 33 39 40 40 41 41 40 37 43 50 51 53 53 54 54 53 53 57 60 63 66 69 73
25 26 28 29 32 33 30 27 25 27 23 20 19 16 14 14 18 21 24 24 26 27 22 21 24 27 33 39 41 41 43 44 40 42 48 56 57 55 54 54 54 56 59 62 65 69 70 74 74
26 26 27 27 30 30 27 22 22 23 23 17 20 20 19 20 23 25 28 32 31 32 30 25 27 31 35 40 39 42 46 47 45 49 55 60 58 57 57 57 57 60 64 67 70 73 75 64 62
23 24 26 26 27 29 26 25 24 23 22 18 23 25 25 26 28 30 33 36 39 36 35 35 37 36 38 40 38 40 46 46 47 55 58 62 60 58 58 59 62 64 68 71 75 74 59 57 55
23 26 28 26 26 27 27 30 26 27 26 26 26 27 29 33 35 36 40 42 38 36 37 38 42 42 41 44 47 37 43 47 53 58 62 62 58 58 61 63 65 68 73 75 67 60 53 52 54
24 25 25 25 23 24 25 27 27 26 28 32 34 35 36 38 41 43 47 39 35 32 38 43 42 47 44 44 44 45 40 46 55 58 58 55 57 58 61 65 70 74 71 64 55 41 46 49 47
21 21 24 26 25 25 24 27 27 27 27 30 34 40 42 42 43 43 38 39 34 34 39 42 46 47 60 44 57 45 38 45 53 53 54 56 56 58 62 67 74 69 62 45 41 41 44 46 45
23 22 26 27 25 23 25 26 25 26 27 27 29 31 31 32 33 31 29 30 33 34 36 41 51 46 54 54 52 43 40 47 50 53 54 55 58 61 65 72 67 56 41 40 38 39 42 44 42
25 26 26 27 26 25 24 25 25 23 26 26 26 27 30 33 33 30 32 35 37 36 38 46 51 47 60 58 50 41 41 47 52 53 53 55 60 63 71 64 49 41 38 34 34 35 41 42 41
28 28 28 27 28 26 26 26 25 25 24 25 27 28 29 31 33 34 35 33 35 38 42 48 45 56 54 32 33 39 44 50 54 50 52 57 61 67 60 48 42 37 34 31 32 31 39 38 36
33 33 31 30 30 29 30 29 24 24 26 27 28 29 31 33 33 36 37 40 39 41 45 46 50 49 41 40 41 46 48 47 47 48 53 57 63 59 50 40 38 34 31 27 29 29 35 38 34
35 35 33 33 32 31 32 28 23 23 27 26 29 30 33 37 34 33 34 38 41 42 46 49 49 39 34 33 36 42 46 44 46 50 54 59 61 51 37 36 33 27 28 27 27 30 33 33 29
Wind_Direction
198 204 217 225 237 243 265 338 9 16 60 87 36 9 4 359 353 345 341 339 349 342 311 296 312 338 328 332 342 353 346 346 343 330 326 325 323 318 316 313 311 310 307 307 303 301 300 298 297
200 213 220 223 238 264 343 26 35 64 49 33 14 3 8 6 356 342 337 354 8 352 318 307 320 326 325 337 346 343 338 335 327 322 317 311 306 307 307 306 305 303 302 303 301 298 294 291 290
209 214 223 226 241 247 86 87 52 61 64 45 341 8 8 16 6 355 359 13 13 6 338 321 306 308 310 320 326 318 317 313 308 305 303 301 300 297 295 295 296 295 295 295 300 295 291 290 288
215 217 227 232 233 229 203 233 72 68 66 58 33 32 17 3 360 358 356 356 1 6 4 358 333 307 297 303 306 305 305 302 298 296 296 298 296 294 297 299 297 294 293 292 293 291 287 287 288
209 220 224 230 225 208 221 245 355 29 44 57 41 20 13 8 5 352 349 349 336 339 340 341 339 326 313 306 297 291 289 288 286 286 287 289 292 293 292 292 293 293 291 288 288 289 287 285 284
201 215 219 223 225 231 243 253 300 324 52 47 35 21 10 10 357 344 337 331 320 323 326 325 328 318 311 303 296 290 285 279 278 279 282 283 284 286 288 288 287 287 288 290 290 288 288 287 285
200 210 216 225 228 244 245 256 305 304 31 43 31 15 12 25 4 340 324 318 317 321 320 323 325 318 308 297 290 287 286 284 282 282 283 284 284 286 288 290 291 291 291 291 292 291 289 287 286
200 210 218 227 238 243 248 270 292 269 344 41 20 12 11 336 342 335 326 319 319 327 325 326 320 308 302 294 291 289 287 286 286 287 287 287 287 288 292 295 296 297 296 294 293 292 292 290 289
206 213 217 229 240 258 262 272 283 274 141 31 17 8 3 350 347 338 322 322 324 328 330 329 324 317 307 299 295 294 295 297 299 301 303 303 300 300 300 300 299 297 295 293 292 291 291 290 289
209 215 222 231 241 254 261 268 269 278 187 356 20 358 342 349 341 333 328 329 331 332 331 326 320 319 315 314 323 322 315 312 309 305 300 297 299 301 299 298 298 297 295 293 291 290 289 287 286
197 215 222 235 247 262 261 269 280 273 308 302 349 347 348 353 340 332 335 330 329 330 323 322 324 322 321 316 310 306 307 307 304 301 299 298 297 296 295 294 292 292 291 291 291 290 289 288 287
197 213 220 240 243 252 259 264 243 314 301 317 351 9 349 346 332 330 330 329 328 332 328 327 321 312 306 308 309 313 312 308 303 301 300 300 300 300 300 299 299 299 298 297 296 295 293 292 291
202 211 217 236 248 255 267 265 274 305 317 348 352 350 349 347 337 335 332 328 323 327 313 315 306 298 301 302 302 303 299 298 296 294 297 298 298 299 299 297 296 295 294 293 293 293 292 292 291
224 214 216 233 245 260 267 277 271 299 301 332 351 3 1 352 331 322 321 318 317 316 309 297 302 306 303 303 300 301 297 294 294 296 297 297 296 295 295 296 296 295 294 294 294 293 292 290 289
237 226 225 234 249 258 265 267 268 288 305 319 341 348 343 344 337 321 320 319 317 323 319 308 302 302 305 304 300 297 296 296 301 302 302 301 300 299 300 300 299 298 297 298 298 297 295 294 293
234 235 226 235 252 260 266 269 275 281 292 299 316 320 319 330 329 324 325 323 324 327 331 332 315 313 311 308 303 305 303 304 305 309 309 309 308 308 305 303 303 302 301 301 301 301 301 300 298
220 224 231 240 256 264 266 267 274 277 280 282 296 307 314 330 335 337 325 324 325 336 339 346 347 331 325 321 316 312 310 307 310 314 316 316 315 312 312 311 310 308 307 306 305 304 301 299 297
228 221 229 239 249 259 264 268 273 275 280 281 285 304 321 324 321 331 312 313 321 330 330 326 336 330 330 327 325 315 314 318 320 322 321 320 318 316 315 313 312 310 309 307 306 306 305 305 303
233 231 227 234 241 249 260 263 271 276 278 281 290 285 305 321 314 318 319 312 315 319 316 314 331 333 324 325 324 322 323 323 321 318 323 322 319 316 315 314 312 311 311 312 311 308 308 307 305
238 234 235 237 240 250 255 260 270 271 274 270 280 278 291 309 312 317 319 320 313 315 316 321 325 328 320 321 320 322 319 320 320 322 319 320 318 315 314 315 316 316 314 312 310 309 307 306 305
247 248 246 242 247 253 254 259 266 270 267 270 282 290 297 301 302 305 309 312 312 309 305 311 316 314 314 314 319 320 320 318 320 318 317 319 320 320 319 318 316 315 314 312 311 309 309 307 304
247 251 250 249 254 260 264 267 265 269 270 274 275 285 290 295 300 306 303 299 300 300 300 304 305 304 304 306 303 308 316 315 313 314 315 319 319 320 319 317 316 313 312 312 311 310 309 308 308
245 246 246 249 250 258 261 264 267 268 272 279 284 288 294 297 299 296 297 299 294 284 289 293 294 293 294 302 295 305 311 313 312 313 316 319 319 321 319 314 312 313 314 313 312 310 310 312 311
248 253 261 261 260 257 258 264 268 266 267 275 282 285 286 288 290 291 291 293 290 283 282 283 282 287 287 295 296 303 311 313 312 316 316 318 323 317 313 314 315 315 315 315 315 317 316 315 315
251 257 261 260 261 262 260 261 267 272 268 266 268 269 271 276 276 280 282 282 288 292 281 277 273 279 292 288 298 301 310 314 315 315 321 321 314 312 315 316 315 315 316 317 319 318 319 322 320
245 248 253 256 255 257 260 263 268 270 275 279 278 278 279 280 281 284 284 278 283 293 291 290 298 295 305 300 288 295 305 311 318 321 317 313 314 317 318 317 316 318 319 320 322 322 327 327 327
248 247 254 258 262 264 268 269 272 278 281 285 288 290 289 290 291 293 299 302 301 299 295 300 304 305 299 296 296 294 298 314 318 312 313 316 318 319 317 319 321 321 323 325 327 333 334 335 332
245 244 249 258 267 272 273 276 282 287 290 294 292 296 301 302 298 295 296 294 294 294 292 293 302 301 300 292 293 295 303 307 305 309 315 318 318 317 320 322 321 322 325 327 332 337 338 341 344
249 249 248 256 263 269 274 278 286 291 299 301 307 301 300 306 307 301 299 303 300 297 299 296 295 297 297 288 299 296 295 308 307 314 317 317 318 320 323 321 322 322 326 327 335 330 336 344 349
246 251 254 255 261 265 272 286 295 293 298 296 300 299 302 309 305 310 310 306 306 299 290 293 301 300 290 287 294 297 307 306 311 316 317 320 321 321 319 319 325 324 327 330 333 331 332 339 347
Height
5914 5916 5916 5917 5918 5918 5920 5920 5918 5918 5920 5917 5916 5916 5916 5914 5915 5917 5915 5914 5914 5913 5913 5913 5913 5913 5913 5913 5913 5914 5915 5915 5915 5916 5917 5917 5916 5916 5916 5916 5916 5916 5915 5915 5914 5914 5913 5912 5912
5914 5915 5915 5915 5915 5918 5921 5920 5919 5918 5917 5915 5915 5916 5916 5914 5913 5913 5913 5912 5912 5912 5913 5913 5912 5912 5912 5911 5911 5912 5913 5914 5915 5915 5914 5914 5913 5913 5913 5912 5912 5912 5912 5911 5911 5911 5910 5909 5908
5913 5914 5915 5914 5915 5920 5921 5921 5920 5920 5918 5918 5917 5917 5915 5914 5914 5913 5912 5911 5911 5911 5911 5911 5911 5911 5911 5911 5910 5911 5911 5912 5912 5912 5912 5911 5911 5910 5910 5910 5909 5909 5908 5907 5906 5906 5905 5904 5903
5912 5914 5914 5914 5917 5920 5920 5920 5920 5919 5918 5917 5917 5917 5916 5914 5914 5913 5912 5912 5912 5911 5911 5910 5910 5910 5910 5910 5910 5910 5910 5910 5910 5910 5910 5910 5908 5908 5907 5907 5906 5905 5904 5903 5902 5901 5900 5899 5898
5911 5912 5912 5914 5916 5919 5918 5918 5919 5919 5918 5917 5916 5916 5915 5914 5914 5913 5912 5912 5912 5912 5911 5910 5909 5908 5908 5908 5908 5908 5908 5908 5908 5907 5907 5906 5905 5904 5903 5902 5901 5900 5899 5897 5896 5896 5895 5893 5892
5910 5911 5911 5913 5915 5917 5918 5919 5918 5918 5918 5917 5916 5915 5914 5913 5913 5913 5913 5911 5911 5910 5910 5908 5907 5907 5906 5906 5906 5906 5905 5905 5904 5904 5903 5903 5902 5900 5899 5898 5896 5895 5894 5893 5891 5890 5889 5888 5886
5909 5909 5910 5912 5914 5915 5917 5918 5918 5918 5917 5916 5914 5914 5914 5913 5912 5912 5911 5910 5909 5909 5908 5907 5905 5904 5905 5904 5904 5903 5902 5901 5901 5901 5900 5899 5899 5897 5895 5894 5892 5891 5889 5888 5887 5885 5884 5883 5881
5908 5908 5908 5909 5912 5914 5915 5916 5918 5917 5916 5913 5913 5913 5916 5914 5912 5911 5909 5909 5909 5907 5907 5906 5904 5904 5903 5902 5901 5900 5899 5899 5898 5898 5897 5896 5894 5893 5892 5891 5889 5888 5887 5885 5883 5881 5879 5877 5875
5906 5906 5907 5907 5909 5910 5913 5915 5916 5916 5914 5914 5912 5913 5915 5913 5911 5910 5909 5908 5908 5907 5905 5903 5902 5901 5901 5900 5899 5898 5898 5897 5897 5896 5895 5894 5893 5891 5890 5888 5886 5884 5882 5880 5877 5875 5872 5870 5867
5903 5905 5906 5905 5907 5908 5910 5912 5915 5915 5913 5913 5912 5913 5914 5912 5910 5909 5909 5906 5905 5904 5902 5901 5901 5900 5899 5899 5898 5897 5897 5897 5896 5894 5893 5891 5890 5888 5886 5884 5882 5880 5877 5874 5872 5869 5865 5862 5860
5900 5901 5903 5903 5905 5905 5908 5910 5912 5913 5913 5912 5912 5913 5913 5911 5909 5908 5907 5905 5904 5902 5900 5900 5898 5898 5898 5897 5896 5895 5895 5894 5893 5892 5890 5888 5885 5884 5881 5879 5876 5873 5871 5867 5864 5860 5856 5853 5850
5897 5896 5901 5902 5904 5904 5906 5909 5910 5911 5910 5911 5912 5911 5910 5909 5907 5906 5904 5904 5903 5902 5899 5897 5897 5897 5896 5895 5894 5892 5892 5891 5889 5888 5886 5883 5880 5877 5874 5871 5868 5864 5861 5857 5853 5849 5846 5842 5838
5895 5895 5900 5899 5900 5902 5905 5907 5909 5911 5910 5910 5909 5908 5908 5906 5905 5903 5902 5902 5901 5900 5899 5897 5896 5895 5894 5893 5891 5890 5889 5888 5886 5884 5882 5878 5875 5871 5868 5865 5861 5857 5853 5848 5844 5839 5835 5831 5826
5894 5896 5899 5897 5900 5900 5903 5906 5907 5909 5910 5907 5906 5906 5906 5905 5903 5902 5902 5902 5901 5899 5897 5896 5895 5894 5892 5890 5889 5887 5885 5882 5880 5879 5876 5873 5869 5865 5860 5856 5852 5847 5842 5838 5834 5829 5824 5820 5815
5894 5896 5897 5896 5898 5899 5900 5904 5905 5906 5906 5904 5904 5905 5905 5903 5901 5900 5900 5899 5897 5896 5895 5894 5892 5890 5888 5886 5884 5881 5878 5876 5875 5873 5869 5865 5861 5856 5852 5847 5841 5835 5830 5826 5820 5815 5810 5806 5801
5891 5893 5894 5896 5896 5897 5898 5899 5900 5900 5901 5900 5901 5902 5902 5901 5900 5898 5897 5895 5894 5893 5892 5891 5889 5886 5884 5882 5879 5876 5874 5872 5869 5866 5861 5857 5852 5848 5843 5837 5831 5826 5820 5814 5808 5802 5796 5791 5785
5886 5889 5892 5893 5892 5893 5894 5895 5896 5896 5897 5896 5898 5899 5900 5899 5897 5896 5894 5891 5891 5890 5888 5887 5886 5883 5881 5878 5874 5871 5868 5865 5861 5857 5853 5848 5843 5837 5830 5825 5819 5813 5807 5801 5794 5788 5782 5777 5771
5883 5885 5887 5889 5889 5888 5889 5892 5893 5896 5895 5894 5894 5895 5896 5895 5895 5894 5891 5888 5886 5885 5885 5884 5881 5879 5875 5871 5868 5864 5860 5856 5852 5848 5844 5839 5833 5827 5820 5814 5807 5801 5795 5788 5781 5774 5766 5758 5751
5881 5882 5884 5884 5884 5884 5885 5888 5891 5891 5891 5891 5892 5892 5893 5893 5891 5889 5887 5884 5883 5882 5880 5878 5876 5873 5869 5866 5860 5856 5852 5849 5845 5841 5836 5830 5824 5817 5810 5803 5797 5790 5782 5774 5766 5759 5751 5742 5733
5877 5878 5880 5881 5881 5881 5883 5886 5887 5886 5888 5889 5890 5889 5889 5889 5887 5885 5884 5882 5881 5879 5877 5874 5871 5868 5865 5860 5856 5852 5848 5844 5839 5834 5829 5822 5814 5806 5799 5792 5784 5777 5770 5762 5753 5745 5737 5728 5716
5871 5874 5876 5878 5877 5878 5880 5882 5882 5883 5884 5884 5883 5882 5883 5883 5882 5881 5879 5878 5877 5874 5871 5868 5864 5863 5860 5856 5851 5846 5842 5836 5832 5827 5820 5812 5803 5795 5788 5780 5773 5766 5757 5749 5740 5730 5719 5711 5701
5867 5869 5870 5873 5873 5873 5874 5876 5877 5878 5879 5879 5876 5875 5876 5876 5875 5874 5872 5871 5869 5867 5864 5861 5859 5857 5853 5848 5844 5840 5835 5829 5824 5818 5811 5803 5794 5785 5778 5769 5761 5754 5745 5735 5724 5713 5704 5696 5688
5864 5863 5864 5867 5869 5870 5870 5870 5871 5871 5872 5873 5872 5870 5869 5868 5866 5863 5862 5861 5860 5858 5857 5855 5852 5849 5845 5841 5833 5830 5827 5821 5815 5809 5801 5791 5784 5774 5766 5760 5752 5742 5731 5720 5708 5699 5691 5684 5676
5859 5859 5860 5861 5864 5865 5866 5865 5865 5868 5869 5866 5865 5865 5865 5863 5862 5861 5858 5855 5852 5850 5849 5847 5844 5839 5836 5831 5825 5824 5818 5813 5807 5798 5790 5781 5772 5767 5760 5750 5739 5728 5717 5705 5695 5688 5683 5674 5665
5853 5855 5856 5856 5857 5859 5860 5859 5860 5860 5862 5862 5862 5862 5860 5859 5857 5854 5852 5850 5848 5845 5842 5839 5835 5829 5822 5821 5819 5816 5809 5804 5797 5790 5780 5773 5768 5760 5749 5738 5727 5714 5703 5694 5689 5683 5675 5666 5657
5848 5851 5851 5851 5852 5853 5853 5854 5856 5855 5855 5855 5854 5853 5852 5850 5848 5847 5845 5844 5841 5838 5834 5828 5824 5823 5818 5816 5812 5806 5801 5796 5788 5779 5774 5768 5760 5748 5737 5726 5713 5702 5694 5689 5683 5676 5668 5658 5649
5844 5845 5847 5846 5847 5848 5849 5850 5850 5851 5850 5849 5848 5846 5843 5842 5841 5840 5837 5834 5830 5828 5825 5821 5815 5813 5810 5807 5804 5798 5794 5787 5779 5773 5766 5758 5749 5737 5726 5713 5702 5695 5690 5685 5678 5671 5663 5653 5644
5837 5841 5841 5842 5841 5843 5843 5844 5845 5844 5844 5842 5840 5839 5837 5835 5833 5830 5828 5825 5822 5819 5816 5812 5809 5806 5801 5797 5794 5790 5785 5780 5773 5765 5757 5748 5739 5727 5715 5704 5697 5691 5686 5680 5674 5667 5660 5651 5641
5831 5833 5836 5837 5837 5837 5838 5840 5840 5839 5838 5836 5834 5832 5830 5827 5825 5823 5819 5817 5814 5811 5808 5804 5801 5798 5795 5791 5788 5785 5780 5772 5765 5756 5748 5739 5728 5716 5707 5699 5692 5687 5681 5676 5670 5665 5657 5649 5640
5824 5826 5828 5830 5832 5831 5832 5835 5834 5833 5832 5830 5828 5825 5823 5821 5818 5815 5812 5808 5804 5800 5797 5794 5791 5788 5783 5782 5780 5777 5771 5764 5756 5749 5739 5728 5715 5706 5700 5695 5689 5682 5677 5672 5667 5662 5655 5648 5641